Regional Weather Roundup
Issued by NWS Newport/Morehead, NC

Current Version | Previous Version | Text Only | Print | Product List | Glossary On
Versions: 1 2 3 4 5 6 7 8 9 10 11 12 13 14 15 16 17 18 19 20 21 22 23 24 25 26 27 28 29 30 31 32 33 34 35 36 37 38 39 40 41 42 43 44 45 46 47 48 49 50
000 ASUS42 KMHX 172125 RWRMHX WEATHER ROUNDUP FOR EASTERN NORTH CAROLINA NATIONAL WEATHER SERVICE NEWPORT/MOREHEAD CITY NC 400 PM EST SAT FEB 17 2018 NOTE: "FAIR" INDICATES FEW OR NO CLOUDS BELOW 12,000 FEET WITH NO SIGNIFICANT WEATHER AND/OR OBSTRUCTIONS TO VISIBILITY NCZ015>017-031-032-045>047-102-103-172200- NORTH COAST CITY SKY/WX TMP DP RH WIND PRES REMARKS EDENTON CLOUDY 46 45 93 E6 30.15F FOG ELIZABETH CITY LGT RAIN 45 45 100 E9 30.14F FOG KITTY HAWK CLOUDY N/A N/A N/A CALM 30.13F FOG MANTEO CLOUDY 46 46 97 E8 30.14F $$ NCZ045>047-081-094-103-104-172200- CENTRAL COAST CITY SKY/WX TMP DP RH WIND PRES REMARKS FRISCO CLOUDY 52 51 97 NE5 30.12S $$ NCZ095-097-098-100-101-172200- SOUTHERN COAST CITY SKY/WX TMP DP RH WIND PRES REMARKS BEAUFORT CLOUDY 53 45 74 NE7 30.12S CEDAR ISLAND NOT AVBL JACKSONVILLE CLOUDY 53 45 74 N7 30.13S PINEY ISLAND NOT AVBL WILMINGTON CLOUDY 53 48 83 NE8 30.13R $$ NCZ011>013-027>030-043-044-078>080-089-090>093-098-172200- COASTAL PLAIN CITY SKY/WX TMP DP RH WIND PRES REMARKS AHOSKIE LGT RAIN 42 42 100 SE3 30.15F CLINTON CLOUDY 52 44 75 CALM 30.15S ELIZABETHTOWN NOT AVBL GOLDSBORO CLOUDY 49 41 76 E5 30.13F GREENVILLE CLOUDY 45 45 100 CALM 30.17R FOG HAVELOCK CLOUDY 53 46 77 NE9G21 30.14S KENANSVILLE NOT AVBL KINSTON DRIZZLE 48 45 87 CALM 30.17R NEW BERN CLOUDY 50 43 77 VRB3 30.15F RICHLANDS CLOUDY 51 45 79 NW3 30.15R ROCKY MOUNT CLOUDY 44 43 96 CALM 30.15S FOG WASHINGTON DRIZZLE 46 44 93 CALM 30.15F WHITEVILLE CLOUDY 55 49 80 CALM 30.13R $$ AMZ130-135-150-152-154-156-158-170-250-252-270-ANZ085-086-088-633-658-670-172200- MARINE OBSERVATIONS STATION/POSITION TIME TEMP WIND PRES WAVE SWELL AIR SEA DIR/SP/G HT/PER HT/PER (UTC) (F) (DEG/KT/KT) (MB) (FT/S) (FT/S) CHESAPEAKE LIGHT NOT AVBL 64 E VA BEACH 2050 51 50 90/ 14/ 16 1020.9 5/ 7 3/ 7 DUCK 2100 45 44 60/ 9/ 9 1020.0 2 E DUCK 2100 45 N/A 4/ 7 OREGON INLET 2100 47 49 20/ 7/ 8 1020.2 13E OREGON INLT 2048 45 N/A 5/ 7 5/ 7 HATTERAS CG 2100 52 58 40/ 7/ 10 1019.5 DIAMOND BUOY 2100 67 70 160/ 17/ 21 1019.8 CAPE LOOKOUT 2100 20/ 13/ 15 1019.8 BEAUFORT LAB 2100 52 54 20/ 8/ 11 1020.0 30 SE NEW RVR IN 2008 61 68 100/ 12/ 16 1019.2 30 SE NEW RVR IN 2100 68 N/A 5/ 8 2/11 27 SE WRIGHTSVLE 2008 62 66 70/ 12/ 19 1019.1 5 SE WRIGHTSVLE 2108 53 53 30/ 10/ 16 1019.3 225 S CAPE HAT 2050 73 73 220/ 12/ 14 1019.9 5/ 7 5/ 7 41 SE CHARLESTON 2100 67 69 340/ 6/ 8 1019.3 $$

USA.gov is the U.S. government's official web portal to all federal, state and local government web resources and services.